Year,Month,Day,Hour,Minute,Value (Times are PST for temperature in C)
2018,09,17,00,00,12.10
2018,09,17,00,01,12.10
2018,09,17,00,02,12.10
2018,09,17,00,03,12.10
2018,09,17,00,04,12.10
2018,09,17,00,05,12.10
2018,09,17,00,06,12.10
2018,09,17,00,07,12.10
2018,09,17,00,08,12.10
2018,09,17,00,09,12.10
2018,09,17,00,10,12.10
2018,09,17,00,11,12.00
2018,09,17,00,12,12.00
2018,09,17,00,13,12.00
2018,09,17,00,14,12.00
2018,09,17,00,15,12.00
2018,09,17,00,16,12.00
2018,09,17,00,17,12.00
2018,09,17,00,18,11.90
2018,09,17,00,19,11.90
2018,09,17,00,20,11.90
2018,09,17,00,21,11.90
2018,09,17,00,22,11.90
2018,09,17,00,23,11.90
2018,09,17,00,24,11.90
2018,09,17,00,25,11.90
2018,09,17,00,26,11.90
2018,09,17,00,27,11.90
2018,09,17,00,28,11.90
2018,09,17,00,29,11.90
2018,09,17,00,30,11.90
2018,09,17,00,31,11.90
2018,09,17,00,32,11.80
2018,09,17,00,33,11.80
2018,09,17,00,34,11.80
2018,09,17,00,35,11.80
2018,09,17,00,36,11.80
2018,09,17,00,37,11.80
2018,09,17,00,38,11.80
2018,09,17,00,39,11.80
2018,09,17,00,40,11.70
2018,09,17,00,41,11.70
2018,09,17,00,42,11.70
2018,09,17,00,43,11.70
2018,09,17,00,44,11.70
2018,09,17,00,45,11.70
2018,09,17,00,46,11.60
2018,09,17,00,47,11.60
2018,09,17,00,48,11.60
2018,09,17,00,49,11.60
2018,09,17,00,50,11.60
2018,09,17,00,51,11.60
2018,09,17,00,52,11.60
2018,09,17,00,53,11.50
2018,09,17,00,54,11.50
2018,09,17,00,55,11.50
2018,09,17,00,56,11.50
2018,09,17,00,57,11.50
2018,09,17,00,58,11.40
2018,09,17,00,59,11.40
2018,09,17,01,00,11.40
2018,09,17,01,01,11.40
2018,09,17,01,02,11.40
2018,09,17,01,03,11.40
2018,09,17,01,04,11.40
2018,09,17,01,05,11.30
2018,09,17,01,06,11.30
2018,09,17,01,07,11.30
2018,09,17,01,08,11.20
2018,09,17,01,09,11.10
2018,09,17,01,10,11.00
2018,09,17,01,11,11.00
2018,09,17,01,12,10.90
2018,09,17,01,13,10.80
2018,09,17,01,14,10.70
2018,09,17,01,15,10.70
2018,09,17,01,16,10.60
2018,09,17,01,17,10.50
2018,09,17,01,18,10.50
2018,09,17,01,19,10.40
2018,09,17,01,20,10.40
2018,09,17,01,21,10.30
2018,09,17,01,22,10.30
2018,09,17,01,23,10.20
2018,09,17,01,24,10.20
2018,09,17,01,25,10.20
2018,09,17,01,26,10.10
2018,09,17,01,27,10.10
2018,09,17,01,28,10.00
2018,09,17,01,29,10.00
2018,09,17,01,30,9.90
2018,09,17,01,31,9.90
2018,09,17,01,32,9.90
2018,09,17,01,33,9.80
2018,09,17,01,34,9.80
2018,09,17,01,35,9.80
2018,09,17,01,36,9.80
2018,09,17,01,37,9.70
2018,09,17,01,38,9.70
2018,09,17,01,39,9.70
2018,09,17,01,40,9.70
2018,09,17,01,41,9.60
2018,09,17,01,42,9.60
2018,09,17,01,43,9.50
2018,09,17,01,44,9.50
2018,09,17,01,45,9.40
2018,09,17,01,46,9.40
2018,09,17,01,47,9.40
2018,09,17,01,48,9.30
2018,09,17,01,49,9.30
2018,09,17,01,50,9.30
2018,09,17,01,51,9.20
2018,09,17,01,52,9.20
2018,09,17,01,53,9.20
2018,09,17,01,54,9.20
2018,09,17,01,55,9.20
2018,09,17,01,56,9.10
2018,09,17,01,57,9.10
2018,09,17,01,58,9.10
2018,09,17,01,59,9.10
2018,09,17,02,00,9.00
2018,09,17,02,01,9.00
2018,09,17,02,02,9.00
2018,09,17,02,03,9.00
2018,09,17,02,04,9.00
2018,09,17,02,05,8.90
2018,09,17,02,06,8.90
2018,09,17,02,07,8.90
2018,09,17,02,08,8.90
2018,09,17,02,09,8.90
2018,09,17,02,10,8.90
2018,09,17,02,11,8.90
2018,09,17,02,12,8.90
2018,09,17,02,13,8.90
2018,09,17,02,14,8.90
2018,09,17,02,15,8.90
2018,09,17,02,16,8.90
2018,09,17,02,17,8.90
2018,09,17,02,18,9.00
2018,09,17,02,19,9.00
2018,09,17,02,20,9.00
2018,09,17,02,21,9.00
2018,09,17,02,22,9.00
2018,09,17,02,23,9.00
2018,09,17,02,24,9.00
2018,09,17,02,25,9.00
2018,09,17,02,26,9.10
2018,09,17,02,27,9.00
2018,09,17,02,28,9.10
2018,09,17,02,29,9.00
2018,09,17,02,30,9.00
2018,09,17,02,31,9.00
2018,09,17,02,32,9.00
2018,09,17,02,33,9.00
2018,09,17,02,34,9.00
2018,09,17,02,35,9.00
2018,09,17,02,36,9.10
2018,09,17,02,37,9.10
2018,09,17,02,38,9.10
2018,09,17,02,39,9.20
2018,09,17,02,40,9.30
2018,09,17,02,41,9.30
2018,09,17,02,42,9.40
2018,09,17,02,43,9.40
2018,09,17,02,44,9.50
2018,09,17,02,45,9.50
2018,09,17,02,46,9.60
2018,09,17,02,47,9.60
2018,09,17,02,48,9.60
2018,09,17,02,49,9.70
2018,09,17,02,50,9.70
2018,09,17,02,51,9.70
2018,09,17,02,52,9.80
2018,09,17,02,53,9.80
2018,09,17,02,54,9.80
2018,09,17,02,55,9.80
2018,09,17,02,56,9.90
2018,09,17,02,57,9.90
2018,09,17,02,58,9.90
2018,09,17,02,59,10.00
2018,09,17,03,00,10.00
2018,09,17,03,01,10.00
2018,09,17,03,02,10.10
2018,09,17,03,03,10.10
2018,09,17,03,04,10.10
2018,09,17,03,05,10.10
2018,09,17,03,06,10.10
2018,09,17,03,07,10.20
2018,09,17,03,08,10.20
2018,09,17,03,09,10.20
2018,09,17,03,10,10.20
2018,09,17,03,11,10.20
2018,09,17,03,12,10.20
2018,09,17,03,13,10.20
2018,09,17,03,14,10.20
2018,09,17,03,15,10.20
2018,09,17,03,16,10.20
2018,09,17,03,17,10.20
2018,09,17,03,18,10.20
2018,09,17,03,19,10.20
2018,09,17,03,20,10.20
2018,09,17,03,21,10.20
2018,09,17,03,22,10.20
2018,09,17,03,23,10.20
2018,09,17,03,24,10.20
2018,09,17,03,25,10.20
2018,09,17,03,26,10.20
2018,09,17,03,27,10.20
2018,09,17,03,28,10.20
2018,09,17,03,29,10.10
2018,09,17,03,30,10.10
2018,09,17,03,31,10.10
2018,09,17,03,32,10.10
2018,09,17,03,33,10.10
2018,09,17,03,34,10.10
2018,09,17,03,35,10.00
2018,09,17,03,36,10.00
2018,09,17,03,37,10.00
2018,09,17,03,38,10.00
2018,09,17,03,39,10.00
2018,09,17,03,40,9.90
2018,09,17,03,41,9.90
2018,09,17,03,42,9.90
2018,09,17,03,43,9.90
2018,09,17,03,44,9.80
2018,09,17,03,45,9.80
2018,09,17,03,46,9.80
2018,09,17,03,47,9.80
2018,09,17,03,48,9.70
2018,09,17,03,49,9.70
2018,09,17,03,50,9.70
2018,09,17,03,51,9.70
2018,09,17,03,52,9.70
2018,09,17,03,53,9.70
2018,09,17,03,54,9.70
2018,09,17,03,55,9.70
2018,09,17,03,56,9.70
2018,09,17,03,57,9.70
2018,09,17,03,58,9.70
2018,09,17,03,59,9.80
2018,09,17,04,00,9.80
2018,09,17,04,01,9.80
2018,09,17,04,02,9.80
2018,09,17,04,03,9.80
2018,09,17,04,04,9.90
2018,09,17,04,05,9.90
2018,09,17,04,06,9.90
2018,09,17,04,07,10.00
2018,09,17,04,08,10.00
2018,09,17,04,09,10.10
2018,09,17,04,10,10.10
2018,09,17,04,11,10.10
2018,09,17,04,12,10.10
2018,09,17,04,13,10.10
2018,09,17,04,14,10.10
2018,09,17,04,15,10.10
2018,09,17,04,16,10.10
2018,09,17,04,17,10.10
2018,09,17,04,18,10.10
2018,09,17,04,19,10.10
2018,09,17,04,20,10.10
2018,09,17,04,21,10.10
2018,09,17,04,22,10.20
2018,09,17,04,23,10.20
2018,09,17,04,24,10.20
2018,09,17,04,25,10.20
2018,09,17,04,26,10.20
2018,09,17,04,27,10.20
2018,09,17,04,28,10.10
2018,09,17,04,29,10.10
2018,09,17,04,30,10.00
2018,09,17,04,31,9.90
2018,09,17,04,32,9.70
2018,09,17,04,33,9.60
2018,09,17,04,34,9.50
2018,09,17,04,35,9.40
2018,09,17,04,36,9.30
2018,09,17,04,37,9.20
2018,09,17,04,38,9.20
2018,09,17,04,39,9.10
2018,09,17,04,40,9.00
2018,09,17,04,41,9.00
2018,09,17,04,42,8.90
2018,09,17,04,43,8.90
2018,09,17,04,44,8.90
2018,09,17,04,45,8.80
2018,09,17,04,46,8.80
2018,09,17,04,47,8.80
2018,09,17,04,48,8.80
2018,09,17,04,49,8.80
2018,09,17,04,50,8.70
2018,09,17,04,51,8.70
2018,09,17,04,52,8.70
2018,09,17,04,53,8.70
2018,09,17,04,54,8.60
2018,09,17,04,55,8.60
2018,09,17,04,56,8.60
2018,09,17,04,57,8.50
2018,09,17,04,58,8.50
2018,09,17,04,59,8.50
2018,09,17,05,00,8.40
2018,09,17,05,01,8.40
2018,09,17,05,02,8.40
2018,09,17,05,03,8.40
2018,09,17,05,04,8.40
2018,09,17,05,05,8.30
2018,09,17,05,06,8.30
2018,09,17,05,07,8.30
2018,09,17,05,08,8.30
2018,09,17,05,09,8.30
2018,09,17,05,10,8.30
2018,09,17,05,11,8.30
2018,09,17,05,12,8.30
2018,09,17,05,13,8.30
2018,09,17,05,14,8.30
2018,09,17,05,15,8.40
2018,09,17,05,16,8.40
2018,09,17,05,17,8.40
2018,09,17,05,18,8.40
2018,09,17,05,19,8.40
2018,09,17,05,20,8.40
2018,09,17,05,21,8.50
2018,09,17,05,22,8.70
2018,09,17,05,23,8.80
2018,09,17,05,24,8.80
2018,09,17,05,25,8.80
2018,09,17,05,26,8.80
2018,09,17,05,27,8.70
2018,09,17,05,28,8.70
2018,09,17,05,29,8.60
2018,09,17,05,30,8.50
2018,09,17,05,31,8.50
2018,09,17,05,32,8.40
2018,09,17,05,33,8.40
2018,09,17,05,34,8.40
2018,09,17,05,35,8.40
2018,09,17,05,36,8.40
2018,09,17,05,37,8.40
2018,09,17,05,38,8.40
2018,09,17,05,39,8.40
2018,09,17,05,40,8.40
2018,09,17,05,41,8.40
2018,09,17,05,42,8.30
2018,09,17,05,43,8.30
2018,09,17,05,44,8.30
2018,09,17,05,45,8.30
2018,09,17,05,46,8.30
2018,09,17,05,47,8.30
2018,09,17,05,48,8.30
2018,09,17,05,49,8.30
2018,09,17,05,50,8.30
2018,09,17,05,51,8.30
2018,09,17,05,52,8.30
2018,09,17,05,53,8.30
2018,09,17,05,54,8.30
2018,09,17,05,55,8.40
2018,09,17,05,56,8.40
2018,09,17,05,57,8.40
2018,09,17,05,58,8.40
2018,09,17,05,59,8.40
2018,09,17,06,00,8.40
2018,09,17,06,01,8.40
2018,09,17,06,02,8.40
2018,09,17,06,03,8.40
2018,09,17,06,04,8.40
2018,09,17,06,05,8.40
2018,09,17,06,06,8.50
2018,09,17,06,07,8.50
2018,09,17,06,08,8.60
2018,09,17,06,09,8.60
2018,09,17,06,10,8.60
2018,09,17,06,11,8.60
2018,09,17,06,12,8.60
2018,09,17,06,13,8.60
2018,09,17,06,14,8.60
2018,09,17,06,15,8.60
2018,09,17,06,16,8.60
2018,09,17,06,17,8.60
2018,09,17,06,18,8.60
2018,09,17,06,19,8.60
2018,09,17,06,20,8.60
2018,09,17,06,21,8.50
2018,09,17,06,22,8.50
2018,09,17,06,23,8.40
2018,09,17,06,24,8.30
2018,09,17,06,25,8.30
2018,09,17,06,26,8.30
2018,09,17,06,27,8.30
2018,09,17,06,28,8.20
2018,09,17,06,29,8.20
2018,09,17,06,30,8.20
2018,09,17,06,31,8.20
2018,09,17,06,32,8.20
2018,09,17,06,33,8.20
2018,09,17,06,34,8.20
2018,09,17,06,35,8.20
2018,09,17,06,36,8.10
2018,09,17,06,37,8.10
2018,09,17,06,38,8.10
2018,09,17,06,39,8.10
2018,09,17,06,40,8.10
2018,09,17,06,41,8.10
2018,09,17,06,42,8.10
2018,09,17,06,43,8.10
2018,09,17,06,44,8.20
2018,09,17,06,45,8.20
2018,09,17,06,46,8.20
2018,09,17,06,47,8.20
2018,09,17,06,48,8.20
2018,09,17,06,49,8.20
2018,09,17,06,50,8.20
2018,09,17,06,51,8.20
2018,09,17,06,52,8.20
2018,09,17,06,53,8.20
2018,09,17,06,54,8.20
2018,09,17,06,55,8.20
2018,09,17,06,56,8.20
2018,09,17,06,57,8.10
2018,09,17,06,58,8.10
2018,09,17,06,59,8.10
2018,09,17,07,00,8.10
2018,09,17,07,01,8.00
2018,09,17,07,02,8.00
2018,09,17,07,03,7.90
2018,09,17,07,04,7.90
2018,09,17,07,05,7.90
2018,09,17,07,06,7.90
2018,09,17,07,07,7.90
2018,09,17,07,08,7.90
2018,09,17,07,09,7.90
2018,09,17,07,10,7.90
2018,09,17,07,11,7.90
2018,09,17,07,12,7.90
2018,09,17,07,13,8.00
2018,09,17,07,14,8.00
2018,09,17,07,15,8.00
2018,09,17,07,16,8.10
2018,09,17,07,17,8.10
2018,09,17,07,18,8.10
2018,09,17,07,19,8.20
2018,09,17,07,20,8.20
2018,09,17,07,21,8.30
2018,09,17,07,22,8.30
2018,09,17,07,23,8.40
2018,09,17,07,24,8.50
2018,09,17,07,25,8.60
2018,09,17,07,26,8.70
2018,09,17,07,27,8.80
2018,09,17,07,28,8.90
2018,09,17,07,29,8.90
2018,09,17,07,30,9.00
2018,09,17,07,31,8.90
2018,09,17,07,32,8.90
2018,09,17,07,33,8.90
2018,09,17,07,34,8.90
2018,09,17,07,35,9.00
2018,09,17,07,36,9.00
2018,09,17,07,37,9.10
2018,09,17,07,38,9.10
2018,09,17,07,39,9.20
2018,09,17,07,40,9.10
2018,09,17,07,41,9.10
2018,09,17,07,42,9.10
2018,09,17,07,43,9.10
2018,09,17,07,44,9.10
2018,09,17,07,45,9.10
2018,09,17,07,46,9.10
2018,09,17,07,47,9.10
2018,09,17,07,48,9.20
2018,09,17,07,49,9.30
2018,09,17,07,50,9.40
2018,09,17,07,51,9.60
2018,09,17,07,52,9.70
2018,09,17,07,53,9.80
2018,09,17,07,54,9.90
2018,09,17,07,55,10.00
2018,09,17,07,56,10.10
2018,09,17,07,57,10.10
2018,09,17,07,58,10.20
2018,09,17,07,59,10.20
2018,09,17,08,00,10.20
2018,09,17,08,01,10.30
2018,09,17,08,02,10.30
2018,09,17,08,03,10.30
2018,09,17,08,04,10.40
2018,09,17,08,05,10.40
2018,09,17,08,06,10.40
2018,09,17,08,07,10.50
2018,09,17,08,08,10.60
2018,09,17,08,09,10.60
2018,09,17,08,10,10.70
2018,09,17,08,11,10.70
2018,09,17,08,12,10.80
2018,09,17,08,13,10.80
2018,09,17,08,14,10.90
2018,09,17,08,15,11.00
2018,09,17,08,16,11.10
2018,09,17,08,17,11.20
2018,09,17,08,18,11.20
2018,09,17,08,19,11.30
2018,09,17,08,20,11.40
2018,09,17,08,21,11.40
2018,09,17,08,22,11.40
2018,09,17,08,23,11.50
2018,09,17,08,24,11.60
2018,09,17,08,25,11.60
2018,09,17,08,26,11.70
2018,09,17,08,27,11.70
2018,09,17,08,28,11.80
2018,09,17,08,29,11.80
2018,09,17,08,30,11.90
2018,09,17,08,31,11.90
2018,09,17,08,32,11.90
2018,09,17,08,33,12.00
2018,09,17,08,34,12.00
2018,09,17,08,35,12.00
2018,09,17,08,36,11.90
2018,09,17,08,37,11.80
2018,09,17,08,38,11.70
2018,09,17,08,39,11.70
2018,09,17,08,40,11.70
2018,09,17,08,41,11.70
2018,09,17,08,42,11.70
2018,09,17,08,43,11.70
2018,09,17,08,44,11.80
2018,09,17,08,45,11.90
2018,09,17,08,46,11.90
2018,09,17,08,47,12.00
2018,09,17,08,48,12.00
2018,09,17,08,49,12.00
2018,09,17,08,50,12.00
2018,09,17,08,51,12.00
2018,09,17,08,52,12.10
2018,09,17,08,53,12.10
2018,09,17,08,54,12.20
2018,09,17,08,55,12.20
2018,09,17,08,56,12.30
2018,09,17,08,57,12.40
2018,09,17,08,58,12.40
2018,09,17,08,59,12.40
2018,09,17,09,00,12.40
2018,09,17,09,01,12.40
2018,09,17,09,02,12.30
2018,09,17,09,03,12.30
2018,09,17,09,04,12.30
2018,09,17,09,05,12.30
2018,09,17,09,06,12.30
2018,09,17,09,07,12.40
2018,09,17,09,08,12.50
2018,09,17,09,09,12.60
2018,09,17,09,10,12.70
2018,09,17,09,11,12.80
2018,09,17,09,12,12.90
2018,09,17,09,13,13.00
2018,09,17,09,14,13.20
2018,09,17,09,15,13.30
2018,09,17,09,16,13.50
2018,09,17,09,17,13.60
2018,09,17,09,18,13.70
2018,09,17,09,19,13.80
2018,09,17,09,20,13.90
2018,09,17,09,21,14.00
2018,09,17,09,22,14.10
2018,09,17,09,23,14.20
2018,09,17,09,24,14.30
2018,09,17,09,25,14.30
2018,09,17,09,26,14.40
2018,09,17,09,27,14.40
2018,09,17,09,28,14.40
2018,09,17,09,29,14.30
2018,09,17,09,30,14.20
2018,09,17,09,31,14.10
2018,09,17,09,32,13.90
2018,09,17,09,33,13.80
2018,09,17,09,34,13.70
2018,09,17,09,35,13.60
2018,09,17,09,36,13.50
2018,09,17,09,37,13.50
2018,09,17,09,38,13.40
2018,09,17,09,39,13.40
2018,09,17,09,40,13.40
2018,09,17,09,41,13.40
2018,09,17,09,42,13.40
2018,09,17,09,43,13.30
2018,09,17,09,44,13.30
2018,09,17,09,45,13.20
2018,09,17,09,46,13.20
2018,09,17,09,47,13.10
2018,09,17,09,48,13.00
2018,09,17,09,49,12.90
2018,09,17,09,50,12.90
2018,09,17,09,51,12.80
2018,09,17,09,52,12.80
2018,09,17,09,53,12.80
2018,09,17,09,54,12.70
2018,09,17,09,55,12.70
2018,09,17,09,56,12.70
2018,09,17,09,57,12.70
2018,09,17,09,58,12.70
2018,09,17,09,59,12.60
2018,09,17,10,00,12.60
2018,09,17,10,01,12.60
2018,09,17,10,02,12.60
2018,09,17,10,03,12.60
2018,09,17,10,04,12.60
2018,09,17,10,05,12.60
2018,09,17,10,06,12.70
2018,09,17,10,07,12.70
2018,09,17,10,08,12.70
2018,09,17,10,09,12.70
2018,09,17,10,10,12.70
2018,09,17,10,11,12.70
2018,09,17,10,12,12.70
2018,09,17,10,13,12.70
2018,09,17,10,14,12.70
2018,09,17,10,15,12.70
2018,09,17,10,16,12.70
2018,09,17,10,17,12.70
2018,09,17,10,18,12.80
2018,09,17,10,19,12.80
2018,09,17,10,20,12.90
2018,09,17,10,21,13.00
2018,09,17,10,22,13.00
2018,09,17,10,23,13.10
2018,09,17,10,24,13.20
2018,09,17,10,25,13.30
2018,09,17,10,26,13.30
2018,09,17,10,27,13.30
2018,09,17,10,28,13.30
2018,09,17,10,29,13.30
2018,09,17,10,30,13.30
2018,09,17,10,31,13.30
2018,09,17,10,32,13.20
2018,09,17,10,33,13.20
2018,09,17,10,34,13.20
2018,09,17,10,35,13.20
2018,09,17,10,36,13.10
2018,09,17,10,37,13.10
2018,09,17,10,38,13.10
2018,09,17,10,39,13.10
2018,09,17,10,40,13.10
2018,09,17,10,41,13.20
2018,09,17,10,42,13.20
2018,09,17,10,43,13.20
2018,09,17,10,44,13.30
2018,09,17,10,45,13.30
2018,09,17,10,46,13.30
2018,09,17,10,47,13.30
2018,09,17,10,48,13.30
2018,09,17,10,49,13.30
2018,09,17,10,50,13.30
2018,09,17,10,51,13.40
2018,09,17,10,52,13.40
2018,09,17,10,53,13.50
2018,09,17,10,54,13.60
2018,09,17,10,55,13.70
2018,09,17,10,56,13.80
2018,09,17,10,57,13.90
2018,09,17,10,58,14.00
2018,09,17,10,59,14.10
2018,09,17,11,00,14.20
2018,09,17,11,01,14.30
2018,09,17,11,02,14.40
2018,09,17,11,03,14.50
2018,09,17,11,04,14.60
2018,09,17,11,05,14.50
2018,09,17,11,06,14.40
2018,09,17,11,07,14.10
2018,09,17,11,08,13.90
2018,09,17,11,09,13.70
2018,09,17,11,10,13.50
2018,09,17,11,11,13.30
2018,09,17,11,12,13.10
2018,09,17,11,13,12.90
2018,09,17,11,14,12.80
2018,09,17,11,15,12.60
2018,09,17,11,16,12.40
2018,09,17,11,17,12.30
2018,09,17,11,18,12.20
2018,09,17,11,19,12.00
2018,09,17,11,20,11.90
2018,09,17,11,21,11.90
2018,09,17,11,22,11.80
2018,09,17,11,23,11.70
2018,09,17,11,24,11.70
2018,09,17,11,25,11.70
2018,09,17,11,26,11.70
2018,09,17,11,27,11.70
2018,09,17,11,28,11.70
2018,09,17,11,29,11.70
2018,09,17,11,30,11.70
2018,09,17,11,31,11.70
2018,09,17,11,32,11.70
2018,09,17,11,33,11.70
2018,09,17,11,34,11.70
2018,09,17,11,35,11.70
2018,09,17,11,36,11.70
2018,09,17,11,37,11.70
2018,09,17,11,38,11.70
2018,09,17,11,39,11.80
2018,09,17,11,40,11.80
2018,09,17,11,41,11.80
2018,09,17,11,42,11.70
2018,09,17,11,43,11.70
2018,09,17,11,44,11.70
2018,09,17,11,45,11.80
2018,09,17,11,46,11.80
2018,09,17,11,47,11.80
2018,09,17,11,48,11.80
2018,09,17,11,49,11.80
2018,09,17,11,50,11.80
2018,09,17,11,51,11.80
2018,09,17,11,52,11.80
2018,09,17,11,53,11.80
2018,09,17,11,54,11.80
2018,09,17,11,55,11.80
2018,09,17,11,56,11.80
2018,09,17,11,57,11.80
2018,09,17,11,58,11.80
2018,09,17,11,59,11.90
2018,09,17,12,00,11.90
2018,09,17,12,01,11.90
2018,09,17,12,02,11.80
2018,09,17,12,03,11.80
2018,09,17,12,04,11.70
2018,09,17,12,05,11.70
2018,09,17,12,06,11.70
2018,09,17,12,07,11.70
2018,09,17,12,08,11.80
2018,09,17,12,09,11.80
2018,09,17,12,10,11.80
2018,09,17,12,11,11.80
2018,09,17,12,12,11.80
2018,09,17,12,13,11.80
2018,09,17,12,14,11.80
2018,09,17,12,15,11.80
2018,09,17,12,16,11.80
2018,09,17,12,17,11.70
2018,09,17,12,18,11.70
2018,09,17,12,19,11.70
2018,09,17,12,20,11.70
2018,09,17,12,21,11.80
2018,09,17,12,22,11.80
2018,09,17,12,23,12.00
2018,09,17,12,24,12.10
2018,09,17,12,25,12.20
2018,09,17,12,26,12.30
2018,09,17,12,27,12.40
2018,09,17,12,28,12.40
2018,09,17,12,29,12.50
2018,09,17,12,30,12.40
2018,09,17,12,31,12.40
2018,09,17,12,32,12.40
2018,09,17,12,33,12.40
2018,09,17,12,34,12.50
2018,09,17,12,35,12.50
2018,09,17,12,36,12.50
2018,09,17,12,37,12.40
2018,09,17,12,38,12.40
2018,09,17,12,39,12.30
2018,09,17,12,40,12.30
2018,09,17,12,41,12.40
2018,09,17,12,42,12.30
2018,09,17,12,43,12.30
2018,09,17,12,44,12.30
2018,09,17,12,45,12.30
2018,09,17,12,46,12.40
2018,09,17,12,47,12.40
2018,09,17,12,48,12.40
2018,09,17,12,49,12.40
2018,09,17,12,50,12.40
2018,09,17,12,51,12.50
2018,09,17,12,52,12.50
2018,09,17,12,53,12.60
2018,09,17,12,54,12.60
2018,09,17,12,55,12.60
2018,09,17,12,56,12.60
2018,09,17,12,57,12.50
2018,09,17,12,58,12.50
2018,09,17,12,59,12.60
2018,09,17,13,00,12.60
2018,09,17,13,01,12.60
2018,09,17,13,02,12.70
2018,09,17,13,03,12.80
2018,09,17,13,04,12.80
2018,09,17,13,05,12.80
2018,09,17,13,06,12.80
2018,09,17,13,07,12.80
2018,09,17,13,08,12.90
2018,09,17,13,09,12.90
2018,09,17,13,10,13.00
2018,09,17,13,11,13.00
2018,09,17,13,12,13.00
2018,09,17,13,13,12.90
2018,09,17,13,14,12.90
2018,09,17,13,15,12.90
2018,09,17,13,16,12.90
2018,09,17,13,17,12.90
2018,09,17,13,18,12.90
2018,09,17,13,19,12.90
2018,09,17,13,20,12.90
2018,09,17,13,21,12.90
2018,09,17,13,22,12.90
2018,09,17,13,23,12.90
2018,09,17,13,24,12.80
2018,09,17,13,25,12.80
2018,09,17,13,26,12.70
2018,09,17,13,27,12.60
2018,09,17,13,28,12.50
2018,09,17,13,29,12.50
2018,09,17,13,30,12.40
2018,09,17,13,31,12.40
2018,09,17,13,32,12.40
2018,09,17,13,33,12.50
2018,09,17,13,34,12.50
2018,09,17,13,35,12.60
2018,09,17,13,36,12.70
2018,09,17,13,37,12.80
2018,09,17,13,38,12.80
2018,09,17,13,39,12.80
2018,09,17,13,40,12.80
2018,09,17,13,41,12.80
2018,09,17,13,42,12.70
2018,09,17,13,43,12.70
2018,09,17,13,44,12.70
2018,09,17,13,45,12.70
2018,09,17,13,46,12.60
2018,09,17,13,47,12.50
2018,09,17,13,48,12.40
2018,09,17,13,49,12.30
2018,09,17,13,50,12.40
2018,09,17,13,51,12.40
2018,09,17,13,52,12.50
2018,09,17,13,53,12.60
2018,09,17,13,54,12.60
2018,09,17,13,55,12.50
2018,09,17,13,56,12.50
2018,09,17,13,57,12.40
2018,09,17,13,58,12.40
2018,09,17,13,59,12.40
2018,09,17,14,00,12.50
2018,09,17,14,01,12.50
2018,09,17,14,02,12.50
2018,09,17,14,03,12.50
2018,09,17,14,04,12.50
2018,09,17,14,05,12.60
2018,09,17,14,06,12.60
2018,09,17,14,07,12.60
2018,09,17,14,08,12.70
2018,09,17,14,09,12.70
2018,09,17,14,10,12.70
2018,09,17,14,11,12.70
2018,09,17,14,12,12.70
2018,09,17,14,13,12.70
2018,09,17,14,14,12.70
2018,09,17,14,15,12.70
2018,09,17,14,16,12.70
2018,09,17,14,17,12.70
2018,09,17,14,18,12.70
2018,09,17,14,19,12.80
2018,09,17,14,20,12.80
2018,09,17,14,21,12.80
2018,09,17,14,22,12.80
2018,09,17,14,23,12.90
2018,09,17,14,24,12.90
2018,09,17,14,25,13.00
2018,09,17,14,26,12.90
2018,09,17,14,27,12.90
2018,09,17,14,28,12.80
2018,09,17,14,29,12.80
2018,09,17,14,30,12.70
2018,09,17,14,31,12.60
2018,09,17,14,32,12.60
2018,09,17,14,33,12.50
2018,09,17,14,34,12.40
2018,09,17,14,35,12.40
2018,09,17,14,36,12.30
2018,09,17,14,37,12.30
2018,09,17,14,38,12.30
2018,09,17,14,39,12.30
2018,09,17,14,40,12.30
2018,09,17,14,41,12.30
2018,09,17,14,42,12.20
2018,09,17,14,43,12.30
2018,09,17,14,44,12.40
2018,09,17,14,45,12.40
2018,09,17,14,46,12.50
2018,09,17,14,47,12.50
2018,09,17,14,48,12.60
2018,09,17,14,49,12.70
2018,09,17,14,50,12.80
2018,09,17,14,51,12.90
2018,09,17,14,52,13.00
2018,09,17,14,53,13.20
2018,09,17,14,54,13.30
2018,09,17,14,55,13.30
2018,09,17,14,56,13.40
2018,09,17,14,57,13.40
2018,09,17,14,58,13.50
2018,09,17,14,59,13.50
2018,09,17,15,00,13.60
2018,09,17,15,01,13.60
2018,09,17,15,02,13.60
2018,09,17,15,03,13.70
2018,09,17,15,04,13.70
2018,09,17,15,05,13.70
2018,09,17,15,06,13.70
2018,09,17,15,07,13.70
2018,09,17,15,08,13.70
2018,09,17,15,09,13.70
2018,09,17,15,10,13.70
2018,09,17,15,11,13.70
2018,09,17,15,12,13.70
2018,09,17,15,13,13.70
2018,09,17,15,14,13.70
2018,09,17,15,15,13.70
2018,09,17,15,16,13.70
2018,09,17,15,17,13.70
2018,09,17,15,18,13.80
2018,09,17,15,19,13.80
2018,09,17,15,20,13.90
2018,09,17,15,21,13.90
2018,09,17,15,22,13.90
2018,09,17,15,23,13.90
2018,09,17,15,24,14.00
2018,09,17,15,25,14.00
2018,09,17,15,26,14.00
2018,09,17,15,27,14.00
2018,09,17,15,28,14.10
2018,09,17,15,29,14.10
2018,09,17,15,30,14.00
2018,09,17,15,31,14.00
2018,09,17,15,32,14.00
2018,09,17,15,33,14.00
2018,09,17,15,34,14.00
2018,09,17,15,35,14.00
2018,09,17,15,36,14.00
2018,09,17,15,37,14.10
2018,09,17,15,38,14.10
2018,09,17,15,39,14.10
2018,09,17,15,40,14.10
2018,09,17,15,41,14.20
2018,09,17,15,42,14.20
2018,09,17,15,43,14.20
2018,09,17,15,44,14.30
2018,09,17,15,45,14.30
2018,09,17,15,46,14.30
2018,09,17,15,47,14.30
2018,09,17,15,48,14.30
2018,09,17,15,49,14.30
2018,09,17,15,50,14.30
2018,09,17,15,51,14.30
2018,09,17,15,52,14.30
2018,09,17,15,53,14.30
2018,09,17,15,54,14.30
2018,09,17,15,55,14.30
2018,09,17,15,56,14.30
2018,09,17,15,57,14.30
2018,09,17,15,58,14.30
2018,09,17,15,59,14.40
2018,09,17,16,00,14.40
2018,09,17,16,01,14.40
2018,09,17,16,02,14.40
2018,09,17,16,03,14.50
2018,09,17,16,04,14.50
2018,09,17,16,05,14.60
2018,09,17,16,06,14.60
2018,09,17,16,07,14.70
2018,09,17,16,08,14.70
2018,09,17,16,09,14.70
2018,09,17,16,10,14.70
2018,09,17,16,11,14.60
2018,09,17,16,12,14.60
2018,09,17,16,13,14.60
2018,09,17,16,14,14.60
2018,09,17,16,15,14.60
2018,09,17,16,16,14.60
2018,09,17,16,17,14.60
2018,09,17,16,18,14.60
2018,09,17,16,19,14.70
2018,09,17,16,20,14.70
2018,09,17,16,21,14.70
2018,09,17,16,22,14.70
2018,09,17,16,23,14.70
2018,09,17,16,24,14.70
2018,09,17,16,25,14.70
2018,09,17,16,26,14.70
2018,09,17,16,27,14.70
2018,09,17,16,28,14.70
2018,09,17,16,29,14.70
2018,09,17,16,30,14.70
2018,09,17,16,31,14.70
2018,09,17,16,32,14.70
2018,09,17,16,33,14.70
2018,09,17,16,34,14.70
2018,09,17,16,35,14.70
2018,09,17,16,36,14.70
2018,09,17,16,37,14.70
2018,09,17,16,38,14.80
2018,09,17,16,39,14.70
2018,09,17,16,40,14.80
2018,09,17,16,41,14.80
2018,09,17,16,42,14.80
2018,09,17,16,43,14.80
2018,09,17,16,44,14.90
2018,09,17,16,45,15.00
2018,09,17,16,46,15.10
2018,09,17,16,47,15.10
2018,09,17,16,48,15.10
2018,09,17,16,49,15.20
2018,09,17,16,50,15.20
2018,09,17,16,51,15.20
2018,09,17,16,52,15.20
2018,09,17,16,53,15.30
2018,09,17,16,54,15.30
2018,09,17,16,55,15.30
2018,09,17,16,56,15.30
2018,09,17,16,57,15.30
2018,09,17,16,58,15.30
2018,09,17,16,59,15.30
2018,09,17,17,00,15.30
2018,09,17,17,01,15.30
2018,09,17,17,02,15.20
2018,09,17,17,03,15.20
2018,09,17,17,04,15.10
2018,09,17,17,05,15.10
2018,09,17,17,06,15.10
2018,09,17,17,07,15.10
2018,09,17,17,08,15.10
2018,09,17,17,09,15.10
2018,09,17,17,10,15.20
2018,09,17,17,11,15.30
2018,09,17,17,12,15.30
2018,09,17,17,13,15.40
2018,09,17,17,14,15.50
2018,09,17,17,15,15.50
2018,09,17,17,16,15.60
2018,09,17,17,17,15.60
2018,09,17,17,18,15.60
2018,09,17,17,19,15.60
2018,09,17,17,20,15.70
2018,09,17,17,21,15.70
2018,09,17,17,22,15.70
2018,09,17,17,23,15.70
2018,09,17,17,24,15.70
2018,09,17,17,25,15.70
2018,09,17,17,26,15.70
2018,09,17,17,27,15.70
2018,09,17,17,28,15.70
2018,09,17,17,29,15.70
2018,09,17,17,30,15.70
2018,09,17,17,31,15.80
2018,09,17,17,32,15.80
2018,09,17,17,33,15.80